| time (UTC) | temp F | wind direction | speed MPH | gust MPH | rain 1hr in | rain 24hr in | rain mn in | humidity % | barometer mb |
| 20260510231537 | 58 | 217 | 0.0 | 1.0 | 0.00 | 0.11 | 0.00 | 89 | 1017.3 |
| 20260510230031 | 58 | 228 | 0.0 | 1.0 | 0.00 | 0.11 | 0.00 | 88 | 1017.4 |
| 20260510224532 | 58 | 225 | 0.0 | 2.0 | 0.00 | 0.11 | 0.00 | 88 | 1017.5 |
| 20260510223119 | 58 | 207 | 0.0 | 1.0 | 0.00 | 0.11 | 0.00 | 87 | 1017.5 |
| 20260510221617 | 58 | 210 | 0.0 | 1.0 | 0.00 | 0.11 | 0.00 | 84 | 1017.6 |
| 20260510220110 | 58 | 198 | 0.0 | 1.0 | 0.00 | 0.11 | 0.00 | 80 | 1017.5 |
| 20260510214600 | 59 | 214 | 0.0 | 3.0 | 0.00 | 0.11 | 0.11 | 78 | 1017.4 |
| 20260510213101 | 59 | 242 | 0.0 | 1.0 | 0.00 | 0.11 | 0.11 | 78 | 1017.4 |
| 20260510211555 | 60 | 229 | 0.0 | 2.0 | 0.00 | 0.11 | 0.11 | 77 | 1017.3 |
| 20260510210052 | 60 | 250 | 0.0 | 2.0 | 0.00 | 0.11 | 0.11 | 76 | 1017.3 |
| 20260510204534 | 60 | 240 | 0.0 | 2.0 | 0.00 | 0.11 | 0.11 | 74 | 1017.0 |
| 20260510203011 | 60 | 259 | 0.0 | 3.0 | 0.00 | 0.11 | 0.11 | 74 | 1016.8 |
| 20260510201616 | 61 | 277 | 0.0 | 4.0 | 0.00 | 0.11 | 0.11 | 73 | 1016.7 |
| 20260510200056 | 61 | 245 | 0.0 | 2.0 | 0.00 | 0.11 | 0.11 | 71 | 1016.5 |
| 20260510194551 | 62 | 245 | 0.0 | 3.0 | 0.00 | 0.11 | 0.11 | 68 | 1016.4 |
| 20260510193037 | 62 | 242 | 0.0 | 4.0 | 0.00 | 0.11 | 0.11 | 66 | 1016.2 |
| 20260510191548 | 63 | 240 | 1.0 | 8.0 | 0.00 | 0.11 | 0.11 | 63 | 1016.2 |
| 20260510190039 | 64 | 226 | 1.0 | 8.0 | 0.00 | 0.11 | 0.11 | 60 | 1016.3 |
| 20260510184534 | 64 | 236 | 3.0 | 12.0 | 0.00 | 0.11 | 0.11 | 65 | 1016.1 |
| 20260510183118 | 65 | 257 | 3.0 | 14.0 | 0.00 | 0.11 | 0.11 | 65 | 1016.0 |
| 20260510181501 | 66 | 243 | 3.0 | 12.0 | 0.00 | 0.11 | 0.11 | 64 | 1015.8 |
| 20260510180114 | 66 | 242 | 3.0 | 13.0 | 0.00 | 0.11 | 0.11 | 63 | 1015.8 |
| 20260510174617 | 67 | 260 | 4.0 | 14.0 | 0.00 | 0.13 | 0.11 | 59 | 1015.7 |
| 20260510173115 | 67 | 242 | 1.0 | 16.0 | 0.00 | 0.13 | 0.11 | 56 | 1015.7 |
| 20260510171605 | 68 | 229 | 4.0 | 16.0 | 0.00 | 0.13 | 0.11 | 54 | 1015.5 |
| 20260510170105 | 68 | 162 | 4.0 | 15.0 | 0.00 | 0.13 | 0.11 | 54 | 1015.4 |
| 20260510164615 | 68 | 239 | 3.0 | 17.0 | 0.00 | 0.13 | 0.11 | 52 | 1015.5 |
| 20260510163105 | 68 | 235 | 5.0 | 15.0 | 0.00 | 0.13 | 0.11 | 49 | 1015.4 |
| 20260510161601 | 68 | 193 | 5.0 | 13.0 | 0.00 | 0.13 | 0.11 | 57 | 1015.4 |
| 20260510160059 | 68 | 254 | 4.0 | 16.0 | 0.00 | 0.13 | 0.11 | 53 | 1015.4 |
| 20260510154554 | 68 | 276 | 7.0 | 15.0 | 0.00 | 0.13 | 0.11 | 56 | 1015.6 |
| 20260510153054 | 67 | 212 | 6.0 | 16.0 | 0.00 | 0.13 | 0.11 | 60 | 1015.4 |
| 20260510151551 | 68 | 238 | 1.0 | 19.0 | 0.00 | 0.13 | 0.11 | 59 | 1015.4 |
| 20260510150044 | 69 | 272 | 2.0 | 16.0 | 0.00 | 0.13 | 0.11 | 55 | 1015.5 |
| 20260510144549 | 69 | 236 | 7.0 | 18.0 | 0.00 | 0.13 | 0.11 | 58 | 1015.4 |
| 20260510143032 | 68 | 242 | 7.0 | 17.0 | 0.00 | 0.13 | 0.11 | 63 | 1015.5 |
| 20260510141536 | 67 | 207 | 3.0 | 14.0 | 0.00 | 0.13 | 0.11 | 72 | 1015.5 |
| 20260510140002 | 65 | 155 | 1.0 | 12.0 | 0.00 | 0.13 | 0.11 | 79 | 1015.7 |
| 20260510134619 | 64 | 307 | 5.0 | 15.0 | 0.00 | 0.18 | 0.11 | 82 | 1015.7 |
| 20260510133110 | 63 | 285 | 3.0 | 12.0 | 0.00 | 0.18 | 0.11 | 88 | 1015.8 |
| 20260510131612 | 62 | 235 | 4.0 | 14.0 | 0.00 | 0.18 | 0.11 | 87 | 1015.8 |
| 20260510130109 | 66 | 155 | 5.0 | 27.0 | 0.00 | 0.18 | 0.11 | 76 | 1015.5 |
| 20260510124624 | 68 | 301 | 3.0 | 16.0 | 0.00 | 0.19 | 0.11 | 71 | 1015.0 |
| 20260510123104 | 68 | 295 | 1.0 | 10.0 | 0.00 | 0.19 | 0.11 | 70 | 1015.2 |
| 20260510121558 | 70 | 233 | 5.0 | 18.0 | 0.00 | 0.19 | 0.11 | 63 | 1015.2 |
| 20260510120051 | 70 | 186 | 10.0 | 17.0 | 0.00 | 0.19 | 0.11 | 63 | 1015.2 |
| 20260510114602 | 69 | 246 | 4.0 | 20.0 | 0.00 | 0.19 | 0.11 | 67 | 1015.3 |
| 20260510113044 | 68 | 8 | 3.0 | 16.0 | 0.00 | 0.19 | 0.11 | 71 | 1015.4 |
| 20260510111542 | 67 | 246 | 3.0 | 12.0 | 0.00 | 0.19 | 0.11 | 74 | 1015.4 |
| 20260510110040 | 67 | 201 | 4.0 | 15.0 | 0.00 | 0.19 | 0.11 | 78 | 1015.6 |
| 20260510104507 | 65 | 235 | 6.0 | 14.0 | 0.00 | 0.23 | 0.11 | 84 | 1015.7 |
| 20260510103121 | 64 | 207 | 3.0 | 13.0 | 0.00 | 0.23 | 0.11 | 86 | 1015.9 |
| 20260510101616 | 62 | 204 | 3.0 | 14.0 | 0.00 | 0.23 | 0.11 | 88 | 1016.1 |
| 20260510100112 | 61 | 151 | 5.0 | 15.0 | 0.00 | 0.23 | 0.11 | 89 | 1016.0 |
| 20260510094614 | 60 | 203 | 7.0 | 15.0 | 0.00 | 0.23 | 0.11 | 88 | 1015.8 |
| 20260510093104 | 61 | 260 | 2.0 | 16.0 | 0.00 | 0.23 | 0.11 | 89 | 1015.6 |
| 20260510091608 | 60 | 239 | 7.0 | 15.0 | 0.01 | 0.23 | 0.11 | 92 | 1015.8 |
| 20260510090112 | 60 | 208 | 4.0 | 12.0 | 0.03 | 0.23 | 0.11 | 91 | 1015.6 |
| 20260510084609 | 60 | 218 | 3.0 | 10.0 | 0.05 | 0.23 | 0.11 | 92 | 1015.3 |
| 20260510083108 | 60 | 221 | 3.0 | 15.0 | 0.06 | 0.23 | 0.11 | 91 | 1015.4 |
| 20260510081559 | 61 | 246 | 7.0 | 14.0 | 0.05 | 0.22 | 0.10 | 93 | 1015.4 |
| 20260510074619 | 61 | 254 | 0.0 | 6.0 | 0.01 | 0.19 | 0.06 | 92 | 1015.2 |
| 20260510073051 | 61 | 211 | 1.0 | 11.0 | 0.00 | 0.18 | 0.06 | 91 | 1015.2 |
| 20260510071600 | 61 | 226 | 4.0 | 12.0 | 0.00 | 0.18 | 0.06 | 89 | 1014.9 |
| 20260510070044 | 61 | 208 | 1.0 | 11.0 | 0.00 | 0.18 | 0.06 | 88 | 1014.8 |
| 20260510064601 | 61 | 226 | 1.0 | 10.0 | 0.00 | 0.19 | 0.06 | 89 | 1014.7 |
| 20260510063114 | 60 | 193 | 3.0 | 14.0 | 0.00 | 0.19 | 0.06 | 91 | 1014.8 |
| 20260510061615 | 59 | 228 | 1.0 | 9.0 | 0.00 | 0.19 | 0.06 | 92 | 1014.6 |
| 20260510060110 | 59 | 205 | 0.0 | 5.0 | 0.00 | 0.19 | 0.06 | 92 | 1014.7 |
| 20260510054610 | 59 | 228 | 1.0 | 8.0 | 0.00 | 0.19 | 0.06 | 92 | 1014.6 |
| 20260510053102 | 59 | 214 | 1.0 | 7.0 | 0.00 | 0.19 | 0.06 | 93 | 1014.5 |
| 20260510051607 | 59 | 211 | 0.0 | 7.0 | 0.00 | 0.19 | 0.06 | 93 | 1014.6 |
| 20260510050104 | 59 | 212 | 0.0 | 9.0 | 0.00 | 0.19 | 0.06 | 93 | 1014.6 |
| 20260510044558 | 59 | 194 | 1.0 | 4.0 | 0.00 | 0.19 | 0.06 | 94 | 1014.4 |
| 20260510043104 | 59 | 250 | 0.0 | 4.0 | 0.00 | 0.19 | 0.06 | 94 | 1014.3 |
| 20260510041612 | 59 | 231 | 0.0 | 4.0 | 0.00 | 0.19 | 0.06 | 94 | 1014.3 |
| 20260510040055 | 59 | 225 | 1.0 | 4.0 | 0.00 | 0.19 | 0.06 | 93 | 1014.3 |
| 20260510034557 | 59 | 208 | 0.0 | 10.0 | 0.00 | 0.19 | 0.06 | 93 | 1014.3 |
| 20260510033100 | 59 | 214 | 1.0 | 10.0 | 0.00 | 0.19 | 0.06 | 93 | 1014.3 |
| 20260510031600 | 59 | 221 | 2.0 | 9.0 | 0.00 | 0.19 | 0.06 | 93 | 1014.4 |
| 20260510030050 | 59 | 214 | 3.0 | 9.0 | 0.00 | 0.19 | 0.06 | 93 | 1014.3 |
| 20260510024557 | 59 | 215 | 3.0 | 11.0 | 0.02 | 0.19 | 0.06 | 93 | 1014.4 |
| 20260510023045 | 59 | 204 | 1.0 | 7.0 | 0.05 | 0.19 | 0.06 | 94 | 1014.4 |
| 20260510021541 | 59 | 231 | 1.0 | 5.0 | 0.05 | 0.19 | 0.06 | 94 | 1014.5 |
| 20260510020040 | 59 | 224 | 4.0 | 10.0 | 0.04 | 0.18 | 0.06 | 93 | 1014.6 |
| 20260510014540 | 60 | 243 | 1.0 | 10.0 | 0.02 | 0.17 | 0.03 | 91 | 1014.8 |
| 20260510013030 | 61 | 230 | 1.0 | 5.0 | 0.00 | 0.14 | 0.01 | 89 | 1014.7 |
| 20260510011537 | 61 | 159 | 1.0 | 8.0 | 0.00 | 0.14 | 0.01 | 88 | 1014.8 |
| 20260510010118 | 60 | 214 | 3.0 | 10.0 | 0.00 | 0.14 | 0.01 | 89 | 1014.9 |
| 20260510004619 | 61 | 225 | 1.0 | 9.0 | 0.00 | 0.14 | 0.01 | 89 | 1015.1 |
| 20260510003107 | 60 | 231 | 2.0 | 10.0 | 0.00 | 0.14 | 0.01 | 89 | 1015.4 |
| 20260510001606 | 60 | 235 | 1.0 | 5.0 | 0.00 | 0.14 | 0.01 | 90 | 1015.5 |
| 20260510000115 | 60 | 226 | 1.0 | 4.0 | 0.01 | 0.14 | 0.01 | 91 | 1015.5 |
| 20260509234605 | 60 | 219 | 0.0 | 8.0 | 0.01 | 0.14 | 0.01 | 91 | 1015.6 |
| 20260509233048 | 60 | 252 | 0.0 | 3.0 | 0.01 | 0.14 | 0.01 | 91 | 1015.7 |